Home   Weather   Salt Lake City   Past weeks
Flag for USA

Past Weather in Salt Lake City, Utah, USA — Yesterday and Last 2 Weeks

Now
40 °F

Passing clouds.


Feels Like: 33 °F
Forecast: 46 / 35 °F
Wind: 12 mph from Southeast

Location: Salt Lake City International Airport

Current Time: Jan 19, 2019 at 10:39:48 pm

Latest Report: Jan 19, 2019 at 9:54 pm


Visibility: 10 mi

Pressure: 30.30 "Hg (25.78 "Hg at 1312m altitude)

Humidity: 68%

Dew Point: 30 °F

Location of Salt Lake CityLocation

Past Weather in Salt Lake City — Graph

°F

Salt Lake City Temperature Yesterday

Maximum temperature yesterday: 39 °F (at 2:54 pm)
Minimum temperature yesterday: 31 °F (at 10:54 pm)
Average temperature yesterday: 36 °F

High & Low Weather Summary for the Past Weeks

 TemperatureHumidityPressure
High46 °F (Jan 17, 10:54 am)100% (Jan 6, 11:35 am)30.47 "Hg (Jan 6, 11:35 am)
Low15 °F (Jan 4, 11:54 pm)58% (Jan 17, 9:54 am)29.78 "Hg (Jan 6, 5:54 am)
Average32 °F83%30.18 "Hg
* Reported Jan 4 8:54 pm — Jan 19 8:54 pm, Salt Lake City. Weather by CustomWeather, © 2019

Note: Actual official high and low records may vary slightly from our data, if they occured in-between our weather recording intervals... More about our weather records

Advertising

Salt Lake City Weather History for the Previous 24 Hours

Scroll right to see more
 ConditionsComfort  
Time TempWeatherWind HumidityBarometerVisibility
8:54 pm
Sat, Jan 19
41 °FOvercast.12 mph62%30.29 "Hg10 mi
7:54 pm41 °FOvercast.10 mph65%30.32 "Hg10 mi
6:54 pm41 °FOvercast.6 mph65%30.34 "Hg10 mi
5:54 pm42 °FMostly cloudy.3 mph62%30.35 "Hg10 mi
3:54 pm42 °FMostly cloudy.8 mph60%30.38 "Hg10 mi
2:54 pm42 °FPartly sunny.10 mph65%30.35 "Hg10 mi
1:54 pm40 °FMostly cloudy.12 mph65%30.39 "Hg10 mi
12:54 pm39 °FOvercast.10 mph62%30.43 "Hg10 mi
11:54 am38 °FOvercast.9 mph65%30.47 "Hg10 mi
10:54 am35 °FMostly cloudy.7 mph72%30.47 "Hg10 mi
9:54 am34 °FOvercast.6 mph73%30.47 "Hg10 mi
8:54 am34 °FOvercast.7 mph70%30.47 "Hg10 mi
7:54 am33 °FOvercast.8 mph70%30.46 "Hg10 mi
6:54 am32 °FOvercast.9 mph75%30.42 "Hg10 mi
5:54 am32 °FMostly cloudy.9 mph79%30.40 "Hg10 mi
4:54 am32 °FMostly cloudy.10 mph79%30.37 "Hg10 mi
3:54 am31 °FPartly cloudy.10 mph76%30.40 "Hg10 mi
2:54 am30 °FPassing clouds.7 mph75%30.41 "Hg10 mi
1:54 am30 °FPassing clouds.8 mph79%30.41 "Hg10 mi
12:54 am30 °FPassing clouds.8 mph79%30.41 "Hg10 mi
11:54 pm
Fri, Jan 18
31 °FPassing clouds.9 mph79%30.43 "Hg10 mi
10:54 pm31 °FPassing clouds.8 mph82%30.43 "Hg10 mi
Weather by CustomWeather, © 2019

See weather overview